Time,TemperatureF,DewpointF,PressureIn,WindDirection,WindDirectionDegrees,WindSpeedMPH,WindSpeedGustMPH,Humidity,HourlyPrecipIn,Conditions,Clouds,dailyrainin,SolarRadiationWatts/m^2,SoftwareType,DateUTC
2013-06-03 00:22:00,55.0,12.0,-100.00,South,183,5.0,7.0,18,0.00,,,0.00,1.000000,,2013-06-03 06:22:00,
2013-06-03 00:32:00,55.0,12.0,-100.00,South,183,5.0,7.0,18,0.00,,,0.00,1.000000,,2013-06-03 06:32:00,
2013-06-03 00:42:00,55.0,12.0,-100.00,South,183,5.0,7.0,18,0.00,,,0.00,1.000000,,2013-06-03 06:42:00,
2013-06-03 00:52:00,55.0,12.0,-100.00,South,183,5.0,7.0,18,0.00,,,0.00,1.000000,,2013-06-03 06:52:00,
2013-06-03 01:22:00,53.0,15.0,-100.00,South,191,5.0,10.0,22,0.00,,,0.00,1.000000,,2013-06-03 07:22:00,
2013-06-03 01:32:00,53.0,15.0,-100.00,South,191,5.0,10.0,22,0.00,,,0.00,1.000000,,2013-06-03 07:32:00,
2013-06-03 01:42:00,53.0,15.0,-100.00,South,191,5.0,10.0,22,0.00,,,0.00,1.000000,,2013-06-03 07:42:00,
2013-06-03 01:52:00,53.0,15.0,-100.00,South,191,5.0,10.0,22,0.00,,,0.00,1.000000,,2013-06-03 07:52:00,
2013-06-03 02:12:00,51.0,16.0,-100.00,SSE,165,4.0,9.0,24,0.00,,,0.00,0.000000,,2013-06-03 08:12:00,
2013-06-03 02:22:00,51.0,16.0,-100.00,SSE,165,4.0,9.0,24,0.00,,,0.00,0.000000,,2013-06-03 08:22:00,
2013-06-03 02:32:00,51.0,16.0,-100.00,SSE,165,4.0,9.0,24,0.00,,,0.00,0.000000,,2013-06-03 08:32:00,
2013-06-03 02:42:00,51.0,16.0,-100.00,SSE,165,4.0,9.0,24,0.00,,,0.00,0.000000,,2013-06-03 08:42:00,
2013-06-03 02:51:00,51.0,16.0,-100.00,SSE,165,4.0,9.0,24,0.00,,,0.00,0.000000,,2013-06-03 08:51:00,
2013-06-03 03:22:00,52.0,15.0,-100.00,SSE,154,4.0,8.0,23,0.00,,,0.00,1.000000,,2013-06-03 09:22:00,
2013-06-03 03:33:00,52.0,15.0,-100.00,SSE,154,4.0,8.0,23,0.00,,,0.00,1.000000,,2013-06-03 09:33:00,
2013-06-03 03:42:00,52.0,15.0,-100.00,SSE,154,4.0,8.0,23,0.00,,,0.00,1.000000,,2013-06-03 09:42:00,
2013-06-03 03:52:00,52.0,15.0,-100.00,SSE,154,4.0,8.0,23,0.00,,,0.00,1.000000,,2013-06-03 09:52:00,
2013-06-03 04:22:00,50.0,16.0,-100.00,SSE,166,3.0,6.0,25,0.00,,,0.00,0.000000,,2013-06-03 10:22:00,
2013-06-03 04:33:00,50.0,16.0,-100.00,SSE,166,3.0,6.0,25,0.00,,,0.00,0.000000,,2013-06-03 10:33:00,
2013-06-03 04:42:00,50.0,16.0,-100.00,SSE,166,3.0,6.0,25,0.00,,,0.00,0.000000,,2013-06-03 10:42:00,
2013-06-03 04:52:00,50.0,16.0,-100.00,SSE,166,3.0,6.0,25,0.00,,,0.00,0.000000,,2013-06-03 10:52:00,
2013-06-03 05:22:00,52.0,15.0,-100.00,South,175,5.0,7.0,23,0.00,,,0.00,1.000000,,2013-06-03 11:22:00,
2013-06-03 05:32:00,52.0,15.0,-100.00,South,175,5.0,7.0,23,0.00,,,0.00,1.000000,,2013-06-03 11:32:00,
2013-06-03 05:42:00,52.0,15.0,-100.00,South,175,5.0,7.0,23,0.00,,,0.00,1.000000,,2013-06-03 11:42:00,
2013-06-03 05:52:00,52.0,15.0,-100.00,South,175,5.0,7.0,23,0.00,,,0.00,1.000000,,2013-06-03 11:52:00,
2013-06-03 06:22:00,52.0,14.0,-100.00,South,178,4.0,7.0,22,0.00,,,0.00,2.000000,,2013-06-03 12:22:00,
2013-06-03 06:32:00,52.0,14.0,-100.00,South,178,4.0,7.0,22,0.00,,,0.00,2.000000,,2013-06-03 12:32:00,
2013-06-03 06:42:00,52.0,14.0,-100.00,South,178,4.0,7.0,22,0.00,,,0.00,2.000000,,2013-06-03 12:42:00,
2013-06-03 06:52:00,52.0,14.0,-100.00,South,178,4.0,7.0,22,0.00,,,0.00,2.000000,,2013-06-03 12:52:00,
2013-06-03 07:22:00,55.0,16.0,-100.00,ESE,116,3.0,5.0,21,0.00,,,0.00,85.000000,,2013-06-03 13:22:00,
2013-06-03 07:32:00,55.0,16.0,-100.00,ESE,116,3.0,5.0,21,0.00,,,0.00,85.000000,,2013-06-03 13:32:00,
2013-06-03 07:42:00,55.0,16.0,-100.00,ESE,116,3.0,5.0,21,0.00,,,0.00,85.000000,,2013-06-03 13:42:00,
2013-06-03 07:52:00,55.0,16.0,-100.00,ESE,116,3.0,5.0,21,0.00,,,0.00,85.000000,,2013-06-03 13:52:00,
2013-06-03 08:22:00,57.0,20.0,-100.00,SSW,210,6.0,10.0,23,0.00,,,0.00,264.000000,,2013-06-03 14:22:00,
2013-06-03 08:32:00,57.0,20.0,-100.00,SSW,210,6.0,10.0,23,0.00,,,0.00,264.000000,,2013-06-03 14:32:00,
2013-06-03 08:42:00,57.0,20.0,-100.00,SSW,210,6.0,10.0,23,0.00,,,0.00,264.000000,,2013-06-03 14:42:00,
2013-06-03 08:52:00,57.0,20.0,-100.00,SSW,210,6.0,10.0,23,0.00,,,0.00,264.000000,,2013-06-03 14:52:00,
2013-06-03 09:22:00,59.0,20.0,-100.00,SW,223,7.0,14.0,22,0.00,,,0.00,464.000000,,2013-06-03 15:22:00,
2013-06-03 09:33:00,59.0,20.0,-100.00,SW,223,7.0,14.0,22,0.00,,,0.00,464.000000,,2013-06-03 15:33:00,
2013-06-03 09:43:00,59.0,20.0,-100.00,SW,223,7.0,14.0,22,0.00,,,0.00,464.000000,,2013-06-03 15:43:00,
2013-06-03 09:53:00,59.0,20.0,-100.00,SW,223,7.0,14.0,22,0.00,,,0.00,464.000000,,2013-06-03 15:53:00,
2013-06-03 10:23:00,61.0,20.0,-100.00,WSW,245,11.0,19.0,20,0.00,,,-99.99,653.000000,,2013-06-03 16:23:00,
2013-06-03 10:33:00,61.0,20.0,-100.00,WSW,245,11.0,19.0,20,0.00,,,-99.99,653.000000,,2013-06-03 16:33:00,
2013-06-03 10:42:00,61.0,20.0,-100.00,WSW,245,11.0,19.0,20,0.00,,,-99.99,653.000000,,2013-06-03 16:42:00,
2013-06-03 10:53:00,61.0,20.0,-100.00,WSW,245,11.0,19.0,20,0.00,,,-99.99,653.000000,,2013-06-03 16:53:00,
2013-06-03 11:22:00,64.0,24.0,-100.00,SW,227,9.0,19.0,22,0.00,,,0.00,819.000000,,2013-06-03 17:22:00,
2013-06-03 11:33:00,64.0,24.0,-100.00,SW,227,9.0,19.0,22,0.00,,,0.00,819.000000,,2013-06-03 17:33:00,
2013-06-03 11:42:00,64.0,24.0,-100.00,SW,227,9.0,19.0,22,0.00,,,0.00,819.000000,,2013-06-03 17:42:00,
2013-06-03 11:52:00,64.0,24.0,-100.00,SW,227,9.0,19.0,22,0.00,,,0.00,819.000000,,2013-06-03 17:52:00,
2013-06-03 12:22:00,64.0,24.0,-100.00,SSW,202,11.0,19.0,22,0.00,,,0.00,951.000000,,2013-06-03 18:22:00,
2013-06-03 12:32:00,64.0,24.0,-100.00,SSW,202,11.0,19.0,22,0.00,,,0.00,951.000000,,2013-06-03 18:32:00,
2013-06-03 12:42:00,64.0,24.0,-100.00,SSW,202,11.0,19.0,22,0.00,,,0.00,951.000000,,2013-06-03 18:42:00,
2013-06-03 12:52:00,64.0,24.0,-100.00,SSW,202,11.0,19.0,22,0.00,,,0.00,951.000000,,2013-06-03 18:52:00,
2013-06-03 13:22:00,63.0,24.0,-100.00,West,273,12.0,24.0,22,0.00,,,0.00,804.000000,,2013-06-03 19:22:00,
2013-06-03 13:32:00,63.0,24.0,-100.00,West,273,12.0,24.0,22,0.00,,,0.00,804.000000,,2013-06-03 19:32:00,
2013-06-03 13:42:00,63.0,24.0,-100.00,West,273,12.0,24.0,22,0.00,,,0.00,804.000000,,2013-06-03 19:42:00,
2013-06-03 13:52:00,63.0,24.0,-100.00,West,273,12.0,24.0,22,0.00,,,0.00,804.000000,,2013-06-03 19:52:00,
2013-06-03 14:22:00,63.0,19.0,-100.00,SW,216,14.0,25.0,18,0.00,,,0.00,592.000000,,2013-06-03 20:22:00,
2013-06-03 14:32:00,63.0,19.0,-100.00,SW,216,14.0,25.0,18,0.00,,,0.00,592.000000,,2013-06-03 20:32:00,
2013-06-03 14:42:00,63.0,19.0,-100.00,SW,216,14.0,25.0,18,0.00,,,0.00,592.000000,,2013-06-03 20:42:00,
2013-06-03 14:52:00,63.0,19.0,-100.00,SW,216,14.0,25.0,18,0.00,,,0.00,592.000000,,2013-06-03 20:52:00,
2013-06-03 15:22:00,63.0,19.0,-100.00,SW,219,16.0,26.0,18,0.00,,,0.00,582.000000,,2013-06-03 21:22:00,
2013-06-03 15:33:00,63.0,19.0,-100.00,SW,219,16.0,26.0,18,0.00,,,0.00,582.000000,,2013-06-03 21:33:00,
2013-06-03 15:43:00,63.0,19.0,-100.00,SW,219,16.0,26.0,18,0.00,,,0.00,582.000000,,2013-06-03 21:43:00,
2013-06-03 15:52:00,63.0,19.0,-100.00,SW,219,16.0,26.0,18,0.00,,,0.00,582.000000,,2013-06-03 21:52:00,
2013-06-03 16:22:00,62.0,23.0,-100.00,WNW,289,8.0,32.0,22,0.00,,,0.00,415.000000,,2013-06-03 22:22:00,
2013-06-03 16:32:00,62.0,23.0,-100.00,WNW,289,8.0,32.0,22,0.00,,,0.00,415.000000,,2013-06-03 22:32:00,
2013-06-03 16:42:00,62.0,23.0,-100.00,WNW,289,8.0,32.0,22,0.00,,,0.00,415.000000,,2013-06-03 22:42:00,
2013-06-03 16:52:00,62.0,23.0,-100.00,WNW,289,8.0,32.0,22,0.00,,,0.00,415.000000,,2013-06-03 22:52:00,
2013-06-03 17:22:00,60.0,23.0,-100.00,West,274,18.0,33.0,24,0.00,,,0.00,300.000000,,2013-06-03 23:22:00,
2013-06-03 17:32:00,60.0,23.0,-100.00,West,274,18.0,33.0,24,0.00,,,0.00,300.000000,,2013-06-03 23:32:00,
2013-06-03 17:42:00,60.0,23.0,-100.00,West,274,18.0,33.0,24,0.00,,,0.00,300.000000,,2013-06-03 23:42:00,
2013-06-03 17:52:00,60.0,23.0,-100.00,West,274,18.0,33.0,24,0.00,,,0.00,300.000000,,2013-06-03 23:52:00,
2013-06-03 18:22:00,63.0,24.0,-100.00,WNW,282,10.0,26.0,22,0.00,,,0.00,509.000000,,2013-06-04 00:22:00,
2013-06-03 18:32:00,63.0,24.0,-100.00,WNW,282,10.0,26.0,22,0.00,,,0.00,509.000000,,2013-06-04 00:32:00,
2013-06-03 18:42:00,63.0,24.0,-100.00,WNW,282,10.0,26.0,22,0.00,,,0.00,509.000000,,2013-06-04 00:42:00,
2013-06-03 18:52:00,63.0,24.0,-100.00,WNW,282,10.0,26.0,22,0.00,,,0.00,509.000000,,2013-06-04 00:52:00,
2013-06-03 19:22:00,60.0,30.0,-100.00,WNW,283,6.0,35.0,32,0.01,,,0.01,183.000000,,2013-06-04 01:22:00,
2013-06-03 19:32:00,60.0,30.0,-100.00,WNW,283,6.0,35.0,32,0.01,,,0.01,183.000000,,2013-06-04 01:32:00,
2013-06-03 19:42:00,60.0,30.0,-100.00,WNW,283,6.0,35.0,32,0.01,,,0.01,183.000000,,2013-06-04 01:42:00,
2013-06-03 19:52:00,60.0,30.0,-100.00,WNW,283,6.0,35.0,32,0.01,,,0.01,183.000000,,2013-06-04 01:52:00,
2013-06-03 20:22:00,58.0,27.0,-100.00,WSW,253,7.0,9.0,30,0.00,,,0.01,147.000000,,2013-06-04 02:22:00,
2013-06-03 20:32:00,58.0,27.0,-100.00,WSW,253,7.0,9.0,30,0.00,,,0.01,147.000000,,2013-06-04 02:32:00,
2013-06-03 20:42:00,58.0,27.0,-100.00,WSW,253,7.0,9.0,30,0.00,,,0.01,147.000000,,2013-06-04 02:42:00,
2013-06-03 20:52:00,58.0,27.0,-100.00,WSW,253,7.0,9.0,30,0.00,,,0.01,147.000000,,2013-06-04 02:52:00,
2013-06-03 21:22:00,55.0,28.0,-100.00,West,280,5.0,10.0,35,0.00,,,0.01,14.000000,,2013-06-04 03:22:00,
2013-06-03 21:32:00,55.0,28.0,-100.00,West,280,5.0,10.0,35,0.00,,,0.01,14.000000,,2013-06-04 03:32:00,
2013-06-03 21:43:00,55.0,28.0,-100.00,West,280,5.0,10.0,35,0.00,,,0.01,14.000000,,2013-06-04 03:43:00,
2013-06-03 21:53:00,55.0,28.0,-100.00,West,280,5.0,10.0,35,0.00,,,0.01,14.000000,,2013-06-04 03:53:00,
2013-06-03 22:23:00,56.0,14.0,-100.00,WNW,299,15.0,26.0,19,0.00,,,0.01,1.000000,,2013-06-04 04:23:00,
2013-06-03 22:33:00,56.0,14.0,-100.00,WNW,299,15.0,26.0,19,0.00,,,0.01,1.000000,,2013-06-04 04:33:00,
2013-06-03 22:42:00,56.0,14.0,-100.00,WNW,299,15.0,26.0,19,0.00,,,0.01,1.000000,,2013-06-04 04:42:00,
2013-06-03 22:53:00,56.0,14.0,-100.00,WNW,299,15.0,26.0,19,0.00,,,0.01,1.000000,,2013-06-04 04:53:00,
2013-06-03 23:22:00,50.0,14.0,-100.00,North,8,8.0,16.0,23,0.00,,,0.01,1.000000,,2013-06-04 05:22:00,
2013-06-03 23:32:00,50.0,14.0,-100.00,North,8,8.0,16.0,23,0.00,,,0.01,1.000000,,2013-06-04 05:32:00,
2013-06-03 23:42:00,50.0,14.0,-100.00,North,8,8.0,16.0,23,0.00,,,0.01,1.000000,,2013-06-04 05:42:00,
2013-06-03 23:52:00,50.0,14.0,-100.00,North,8,8.0,16.0,23,0.00,,,0.01,1.000000,,2013-06-04 05:52:00,